Flight Track Log - Related Links

Times and Time Zones

All times are in EDT time to prevent confusion due to time zone crossing. See the AAL963 flight status page for this flight to view local times or setup timezone preferences in your user account.

Time Position Orientation Groundspeed Altitude Reporting Facility
EDT Latitude Longitude Course Direction KTS MPH feet Rate Location/Type
Mon 09:09:06 PM 32.8750 -97.0300 178° South 188 216 1,300  Level FlightAware ADS-B
Mon 09:09:16 PM 32.8660 -97.0280 169° South 188 216 1,900 2,700 Climbing FlightAware ADS-B
Mon 09:09:26 PM 32.8580 -97.0250 163° South 181 208 2,200 1,029 Climbing FlightAware ADS-B
Mon 09:09:51 PM 32.8370 -97.0190 167° South 207 238 2,500 800 Climbing FlightAware ADS-B
Mon 09:10:11 PM 32.8160 -97.0130 166° South 231 266 2,800 1,350 Climbing FlightAware ADS-B
Mon 09:10:31 PM 32.7970 -97.0030 156° South 241 277 3,400 1,680 Climbing FlightAware ADS-B
Mon 09:10:36 PM 32.7930 -96.9990 140° Southeast 243 280 3,500 1,600 Climbing FlightAware ADS-B
Mon 09:10:46 PM 32.7860 -96.9870 125° Southeast 251 289 3,800 2,000 Climbing FlightAware ADS-B
Mon 09:10:51 PM 32.7830 -96.9780 112° Southeast 256 295 4,000 1,800 Climbing FlightAware ADS-B
Mon 09:10:56 PM 32.7820 -96.9740 107° East 260 299 4,100 2,000 Climbing FlightAware ADS-B
Mon 09:11:06 PM 32.7810 -96.9590 95° East 265 305 4,500 2,400 Climbing FlightAware ADS-B
Mon 09:11:36 PM 32.7810 -96.9170 90° East 266 306 5,700 2,375 Climbing FlightAware ADS-B
Mon 09:11:54 PM 32.7810 -96.8890 90° East 269 310 6,400 2,364 Climbing FlightAware ADS-B
Mon 09:12:09 PM 32.7800 -96.8640 93° East 272 313 7,000 2,308 Climbing FlightAware ADS-B
Mon 09:12:33 PM 32.7790 -96.8300 92° East 277 319 7,900 2,348 Climbing FlightAware ADS-B
Mon 09:12:55 PM 32.7780 -96.7940 92° East 281 323 8,800 2,286 Climbing FlightAware ADS-B
Mon 09:13:15 PM 32.7770 -96.7630 92° East 284 327 9,500 1,821 Climbing FlightAware ADS-B
Mon 09:13:51 PM 32.7750 -96.7040 92° East 302 348 10,500 1,324 Climbing FlightAware ADS-B
Mon 09:14:23 PM 32.7730 -96.6490 92° East 336 387 11,000 1,059 Climbing FlightAware ADS-B
Mon 09:14:59 PM 32.7700 -96.5790 93° East 371 427 11,700 1,583 Climbing FlightAware ADS-B
Mon 09:15:35 PM 32.7670 -96.5040 93° East 386 444 12,900 2,250 Climbing FlightAware ADS-B
Mon 09:16:11 PM 32.7650 -96.4260 92° East 394 453 14,400 2,382 Climbing FlightAware ADS-B
Mon 09:16:43 PM 32.7620 -96.3550 93° East 398 458 15,600 2,206 Climbing FlightAware ADS-B
Mon 09:17:19 PM 32.7520 -96.2750 98° East 406 467 16,900 2,083 Climbing FlightAware ADS-B
Mon 09:17:55 PM 32.7400 -96.1970 100° East 412 474 18,100 2,000 Climbing FlightAware ADS-B
Mon 09:18:31 PM 32.7270 -96.1160 101° East 419 482 19,300 1,941 Climbing FlightAware ADS-B
Mon 09:19:03 PM 32.7150 -96.0410 101° East 426 490 20,300 1,714 Climbing FlightAware ADS-B
Mon 09:19:41 PM 32.7011 -95.9518 100° East 437 503 21,300 1,644 Climbing FlightAware ADS-B
Mon 09:20:16 PM 32.6880 -95.8710 101° East 442 509 22,300 1,636 Climbing FlightAware ADS-B
Mon 09:20:47 PM 32.6759 -95.7939 101° East 441 507 23,100 1,500 Climbing FlightAware ADS-B
Mon 09:21:24 PM 32.6618 -95.7030 100° East 459 528 24,000 1,527 Climbing FlightAware ADS-B
Mon 09:21:42 PM 32.6586 -95.6577 95° East 462 532 24,500 1,478 Climbing FlightAware ADS-B
Mon 09:22:33 PM 32.6647 -95.5273 87° East 464 534 25,700 643 Climbing FlightAware ADS-B
Mon 09:23:34 PM 32.6740 -95.3960 85° East 471 542 25,700  Level FlightAware ADS-B
Mon 09:24:11 PM 32.6800 -95.3150 85° East 471 542 25,700  Level FlightAware ADS-B
Mon 09:24:47 PM 32.6860 -95.2360 85° East 471 542 25,700 3,176 Level FlightAware ADS-B
Mon 09:25:19 PM 32.6950 -95.0890 86° East 499 574 29,300 2,824 Climbing FlightAware ADS-B
Mon 09:26:12 PM 32.7000 -94.9560 87° East 505 581 29,700 1,586 Climbing FlightAware ADS-B
Mon 09:26:46 PM 32.6924 -94.8484 95° East 502 578 31,600  Climbing FlightAware ADS-B
Mon 09:27:27 PM 32.7050 -94.7790 78° East 505 581 29,700 1,219 Descending FlightAware ADS-B
Mon 09:27:50 PM 32.6474 -94.6879 127° Southeast 494 568 32,900 2,912 Climbing FlightAware ADS-B
Mon 09:28:35 PM 32.6000 -94.6010 123° Southeast 488 562 33,000 74 Climbing FlightAware ADS-B
Mon 09:29:11 PM 32.5620 -94.5330 124° Southeast 488 562 33,000  Level FlightAware ADS-B
Mon 09:29:47 PM 32.5250 -94.4640 122° Southeast 488 562 33,000  Level FlightAware ADS-B
Mon 09:30:23 PM 32.4870 -94.3950 123° Southeast 488 562 33,000  Level FlightAware ADS-B
Mon 09:30:59 PM 32.4490 -94.3270 124° Southeast 488 562 33,000  Level FlightAware ADS-B
Mon 09:31:15 PM 32.3883 -94.2313 127° Southeast 489 563 33,000  Level FlightAware ADS-B
Mon 09:31:56 PM 32.3359 -94.1398 124° Southeast 489 563 33,000  Level FlightAware ADS-B
Mon 09:32:36 PM 32.2863 -94.0533 124° Southeast 488 562 33,000  Level FlightAware ADS-B
Mon 09:33:13 PM 32.2392 -93.9715 124° Southeast 488 562 33,000  Level FlightAware ADS-B
Mon 09:33:45 PM 32.1986 -93.9012 124° Southeast 487 560 33,000  Level FlightAware ADS-B
Mon 09:34:16 PM 32.1591 -93.8327 124° Southeast 487 560 33,000  Level FlightAware ADS-B
Mon 09:34:50 PM 32.1165 -93.7589 124° Southeast 487 560 33,000  Level FlightAware ADS-B
Mon 09:35:34 PM 32.0596 -93.6610 124° Southeast 486 559 33,000  Level FlightAware ADS-B
Mon 09:36:32 PM 31.9867 -93.5356 124° Southeast 486 559 33,000  Level FlightAware ADS-B
Mon 09:37:37 PM 32.0330 -93.5690 329° Northwest 488 562 33,000  Level FlightAware ADS-B
Mon 09:39:51 PM 31.7334 -93.1029 127° Southeast 486 559 33,000  Level FlightAware ADS-B
Mon 09:40:51 PM 31.6569 -92.9732 125° Southeast 487 560 33,000  Level FlightAware ADS-B
Mon 09:42:09 PM 31.5565 -92.8025 125° Southeast 490 564 33,000  Level FlightAware ADS-B
Mon 09:42:39 PM 31.5170 -92.7355 125° Southeast 495 570 33,000  Level FlightAware ADS-B
Mon 09:44:28 PM 31.3765 -92.4974 125° Southeast 492 566 33,000 -31 Level FlightAware ADS-B
Mon 09:45:55 PM 31.2800 -92.3347 125° Southeast 493 567 32,900  Descending Houston Center
Mon 09:51:37 PM 30.8140 -91.5600 125° Southeast 499 574 33,000 16 Climbing FlightAware ADS-B
Mon 09:52:07 PM 30.7730 -91.4930 125° Southeast 498 573 33,000  Level FlightAware ADS-B
Mon 09:52:47 PM 30.7180 -91.4030 125° Southeast 499 574 33,000  Level FlightAware ADS-B
Mon 09:53:22 PM 30.6720 -91.3270 125° Southeast 500 575 33,000  Level FlightAware ADS-B
Mon 09:53:57 PM 30.6250 -91.2490 125° Southeast 502 578 33,000  Level FlightAware ADS-B
Mon 09:54:37 PM 30.5700 -91.1600 126° Southeast 502 578 33,000  Level FlightAware ADS-B
Mon 09:55:32 PM 30.5030 -91.0510 125° Southeast 501 577 33,000  Level FlightAware ADS-B
Mon 09:56:14 PM 30.4400 -90.9490 126° Southeast 502 578 33,000  Level FlightAware ADS-B
Mon 09:56:49 PM 30.3980 -90.8810 126° Southeast 502 578 33,000  Level FlightAware ADS-B
Mon 09:57:26 PM 30.3431 -90.7916 125° Southeast 501 577 33,000  Level FlightAware ADS-B
Mon 09:58:05 PM 30.3070 -90.7310 125° Southeast 501 577 33,000  Level FlightAware ADS-B
Mon 09:58:41 PM 30.2670 -90.6640 125° Southeast 501 577 33,000  Level FlightAware ADS-B
Mon 09:59:17 PM 30.2260 -90.5970 125° Southeast 501 577 33,000  Level FlightAware ADS-B
Mon 09:59:54 PM 30.1450 -90.4720 127° Southeast 503 579 33,000  Level FlightAware ADS-B
Mon 10:00:29 PM 30.0980 -90.3970 126° Southeast 504 580 33,000  Level FlightAware ADS-B
Mon 10:01:09 PM 30.0430 -90.3090 126° Southeast 505 581 33,000  Level FlightAware ADS-B
Mon 10:01:44 PM 29.9930 -90.2290 126° Southeast 504 580 33,000  Level FlightAware ADS-B
Mon 10:02:19 PM 29.9520 -90.1640 126° Southeast 504 580 33,000  Level FlightAware ADS-B
Mon 10:02:58 PM 29.8920 -90.0690 126° Southeast 505 581 33,000  Level FlightAware ADS-B
Mon 10:03:30 PM 29.8470 -89.9980 126° Southeast 504 580 33,000  Level FlightAware ADS-B
Mon 10:04:06 PM 29.7950 -89.9240 129° Southeast 504 580 33,000  Level FlightAware ADS-B
Mon 10:04:42 PM 29.7400 -89.8520 131° Southeast 503 579 33,000  Level FlightAware ADS-B
Mon 10:05:18 PM 29.6860 -89.7770 130° Southeast 504 580 33,000  Level FlightAware ADS-B
Mon 10:05:50 PM 29.6460 -89.7040 122° Southeast 503 579 33,000  Level FlightAware ADS-B
Mon 10:06:26 PM 29.6110 -89.6220 116° Southeast 500 575 33,000  Level FlightAware ADS-B
Mon 10:07:02 PM 29.5740 -89.5360 116° Southeast 497 572 33,000  Level FlightAware ADS-B
Mon 10:07:36 PM 29.5390 -89.4530 116° Southeast 495 570 33,000  Level FlightAware ADS-B
Mon 10:08:14 PM 29.5020 -89.3670 116° Southeast 495 570 33,000  Level FlightAware ADS-B
Mon 10:09:00 PM 29.4550 -89.2560 116° Southeast 493 567 33,000  Level FlightAware ADS-B
Mon 10:09:34 PM 29.4200 -89.1760 117° Southeast 492 566 33,000  Level FlightAware ADS-B
Mon 10:10:12 PM 29.3810 -89.0860 116° Southeast 490 564 33,000  Level FlightAware ADS-B
Mon 10:10:45 PM 29.3490 -89.0120 116° Southeast 489 563 33,000  Level FlightAware ADS-B
Mon 10:11:20 PM 29.3150 -88.9340 117° Southeast 491 565 33,000  Level FlightAware ADS-B
Mon 10:11:53 PM 29.2800 -88.8520 116° Southeast 492 566 33,000  Level FlightAware ADS-B
Mon 10:12:29 PM 29.2430 -88.7670 116° Southeast 493 567 33,000  Level FlightAware ADS-B
Mon 10:13:05 PM 29.2080 -88.6860 116° Southeast 494 568 33,000  Level FlightAware ADS-B
Mon 10:13:39 PM 29.1720 -88.6050 117° Southeast 493 567 33,000  Level FlightAware ADS-B
Mon 10:14:15 PM 29.1360 -88.5220 116° Southeast 493 567 33,000  Level FlightAware ADS-B
Mon 10:14:47 PM 29.1020 -88.4460 117° Southeast 495 570 33,000  Level FlightAware ADS-B
Mon 10:15:25 PM 29.0650 -88.3610 116° Southeast 497 572 33,000  Level FlightAware ADS-B
Mon 10:16:01 PM 29.0250 -88.2720 117° Southeast 498 573 33,000  Level FlightAware ADS-B
Mon 10:16:33 PM 28.9930 -88.2000 117° Southeast 497 572 33,000  Level FlightAware ADS-B
Mon 10:17:10 PM 28.9550 -88.1140 117° Southeast 495 570 33,000  Level FlightAware ADS-B
Mon 10:17:46 PM 28.9170 -88.0300 117° Southeast 495 570 33,000  Level FlightAware ADS-B
Mon 10:18:22 PM 28.8790 -87.9440 117° Southeast 498 573 33,000  Level FlightAware ADS-B
Mon 10:19:02 PM 28.8370 -87.8520 118° Southeast 499 574 33,000  Level FlightAware ADS-B
Mon 10:19:36 PM 28.8010 -87.7710 117° Southeast 500 575 33,000  Level FlightAware ADS-B
Mon 10:20:11 PM 28.7680 -87.6990 118° Southeast 500 575 33,000  Level FlightAware ADS-B
Mon 10:20:48 PM 28.7350 -87.6250 117° Southeast 500 575 33,000  Level FlightAware ADS-B
Mon 10:21:24 PM 28.7030 -87.5530 117° Southeast 500 575 33,000  Level FlightAware ADS-B
Mon 10:22:00 PM 28.6710 -87.4810 117° Southeast 500 575 33,000  Level FlightAware ADS-B
Mon 10:22:30 PM 28.6170 -87.3640 118° Southeast 504 580 33,000  Level FlightAware ADS-B
Mon 10:23:04 PM 28.5790 -87.2820 118° Southeast 505 581 33,000  Level FlightAware ADS-B
Mon 10:23:42 PM 28.5380 -87.1920 117° Southeast 504 580 33,000  Level FlightAware ADS-B
Mon 10:24:18 PM 28.5000 -87.1090 118° Southeast 504 580 33,000  Level FlightAware ADS-B
Mon 10:24:50 PM 28.4650 -87.0330 118° Southeast 504 580 33,000  Level FlightAware ADS-B
Mon 10:25:24 PM 28.4280 -86.9520 117° Southeast 504 580 33,000  Level FlightAware ADS-B
Mon 10:26:02 PM 28.3880 -86.8640 117° Southeast 504 580 33,000  Level FlightAware ADS-B
Mon 10:26:36 PM 28.3520 -86.7860 118° Southeast 505 581 33,000  Level FlightAware ADS-B
Mon 10:27:27 PM 28.3030 -86.6630 114° Southeast 504 580 33,000  Level FlightAware ADS-B
Mon 10:28:04 PM 28.2780 -86.5850 110° East 504 580 33,000  Level FlightAware ADS-B
Mon 10:28:40 PM 28.2530 -86.5080 110° East 504 580 33,000  Level FlightAware ADS-B
Mon 10:29:20 PM 28.2200 -86.3820 107° East 499 574 33,000  Level FlightAware ADS-B
Mon 10:29:53 PM 28.1990 -86.3070 108° East 499 574 33,000  Level FlightAware ADS-B
Mon 10:30:29 PM 28.1770 -86.2310 108° East 499 574 33,000  Level FlightAware ADS-B
Mon 10:31:05 PM 28.1550 -86.1540 108° East 499 574 33,000  Level FlightAware ADS-B
Mon 10:31:41 PM 28.1330 -86.0780 108° East 499 574 33,000  Level FlightAware ADS-B
Mon 10:32:18 PM 28.1110 -86.0000 108° East 499 574 33,000  Level FlightAware ADS-B
Mon 10:32:52 PM 28.0900 -85.9280 108° East 499 574 33,000  Level FlightAware ADS-B
Mon 10:33:28 PM 28.0680 -85.8520 108° East 499 574 33,000  Level FlightAware ADS-B
Mon 10:34:04 PM 28.0460 -85.7760 108° East 499 574 33,000  Level FlightAware ADS-B
Mon 10:34:38 PM 27.9880 -85.6000 110° East 487 560 33,000  Level FlightAware ADS-B
Mon 10:35:14 PM 27.9620 -85.5150 109° East 485 558 33,000  Level FlightAware ADS-B
Mon 10:35:52 PM 27.9340 -85.4220 109° East 486 559 33,000  Level FlightAware ADS-B
Mon 10:36:32 PM 27.9050 -85.3260 109° East 486 559 33,000  Level FlightAware ADS-B
Mon 10:37:10 PM 27.8810 -85.2430 108° East 486 559 33,000  Level FlightAware ADS-B
Mon 10:37:46 PM 27.8590 -85.1690 109° East 486 559 33,000  Level FlightAware ADS-B
Mon 10:38:24 PM 27.8500 -85.0540 95° East 478 550 33,000  Level FlightAware ADS-B
Mon 10:39:15 PM 27.8310 -84.9380 100° East 478 550 33,000  Level FlightAware ADS-B
Mon 10:39:51 PM 27.8190 -84.8620 100° East 478 550 33,000  Level FlightAware ADS-B
Mon 10:40:22 PM 27.8010 -84.7660 102° East 478 550 33,000  Level FlightAware ADS-B
Mon 10:40:57 PM 27.7860 -84.6770 101° East 479 551 33,000  Level FlightAware ADS-B
Mon 10:41:34 PM 27.7710 -84.5880 101° East 480 552 33,000  Level FlightAware ADS-B
Mon 10:42:06 PM 27.7580 -84.5120 101° East 479 551 33,000  Level FlightAware ADS-B
Mon 10:42:44 PM 27.7410 -84.4160 101° East 479 551 33,000  Level FlightAware ADS-B
Mon 10:43:19 PM 27.7260 -84.3280 101° East 478 550 33,000  Level FlightAware ADS-B
Mon 10:43:52 PM 27.7120 -84.2480 101° East 479 551 33,000  Level FlightAware ADS-B
Mon 10:44:27 PM 27.6970 -84.1620 101° East 479 551 33,000  Level FlightAware ADS-B
Mon 10:45:04 PM 27.6810 -84.0710 101° East 480 552 33,000  Level FlightAware ADS-B
Mon 10:45:39 PM 27.6660 -83.9840 101° East 479 551 33,000  Level FlightAware ADS-B
Mon 10:46:12 PM 27.6520 -83.9060 101° East 478 550 33,000  Level FlightAware ADS-B
Mon 10:46:48 PM 27.6360 -83.8160 101° East 477 549 33,000  Level FlightAware ADS-B
Mon 10:47:24 PM 27.6200 -83.7290 102° East 476 548 33,000  Level FlightAware ADS-B
Mon 10:47:55 PM 27.6070 -83.6530 101° East 477 549 33,000  Level FlightAware ADS-B
Mon 10:48:31 PM 27.5890 -83.5660 103° East 477 549 33,000  Level FlightAware ADS-B
Mon 10:49:08 PM 27.5610 -83.4800 110° East 480 552 33,000  Level FlightAware ADS-B
Mon 10:49:44 PM 27.5290 -83.3980 114° Southeast 481 554 33,000  Level FlightAware ADS-B
Mon 10:50:17 PM 27.5000 -83.3230 114° Southeast 481 554 33,000  Level FlightAware ADS-B
Mon 10:50:53 PM 27.4670 -83.2400 114° Southeast 483 556 33,000  Level FlightAware ADS-B
Mon 10:51:29 PM 27.4340 -83.1570 114° Southeast 484 557 33,000  Level FlightAware ADS-B
Mon 10:52:01 PM 27.4050 -83.0840 114° Southeast 485 558 33,000  Level FlightAware ADS-B
Mon 10:52:38 PM 27.3710 -82.9970 114° Southeast 488 562 33,000  Level FlightAware ADS-B
Mon 10:53:15 PM 27.3370 -82.9110 114° Southeast 491 565 33,000  Level FlightAware ADS-B
Mon 10:53:47 PM 27.3080 -82.8390 114° Southeast 492 566 33,000  Level FlightAware ADS-B
Mon 10:54:23 PM 27.2760 -82.7590 114° Southeast 493 567 33,000  Level FlightAware ADS-B
Mon 10:54:56 PM 27.2430 -82.6780 115° Southeast 493 567 33,000  Level FlightAware ADS-B
Mon 10:55:35 PM 27.2060 -82.5850 114° Southeast 496 571 33,000  Level FlightAware ADS-B
Mon 10:56:15 PM 27.1690 -82.4920 114° Southeast 499 574 33,000  Level FlightAware ADS-B
Mon 10:56:53 PM 27.1330 -82.4020 114° Southeast 501 577 33,000  Level FlightAware ADS-B
Mon 10:57:38 PM 27.0910 -82.2970 114° Southeast 499 574 33,000  Level FlightAware ADS-B
Mon 10:58:12 PM 27.0570 -82.2140 115° Southeast 505 581 33,000  Level FlightAware ADS-B
Mon 10:58:47 PM 27.0230 -82.1280 114° Southeast 505 581 33,000  Level FlightAware ADS-B
Mon 10:59:23 PM 26.9910 -82.0500 115° Southeast 507 583 33,000  Level FlightAware ADS-B
Mon 10:59:59 PM 26.9550 -81.9600 114° Southeast 506 582 33,000  Level FlightAware ADS-B
Mon 11:00:32 PM 26.9210 -81.8770 115° Southeast 506 582 33,000  Level FlightAware ADS-B
Mon 11:01:09 PM 26.8860 -81.7890 114° Southeast 506 582 33,000  Level FlightAware ADS-B
Mon 11:01:46 PM 26.8500 -81.7020 115° Southeast 506 582 33,000  Level FlightAware ADS-B
Mon 11:02:15 PM 26.8220 -81.6330 114° Southeast 506 582 33,000  Level FlightAware ADS-B
Mon 11:02:53 PM 26.7850 -81.5430 115° Southeast 506 582 33,000  Level FlightAware ADS-B
Mon 11:03:30 PM 26.7490 -81.4540 114° Southeast 507 583 33,000  Level FlightAware ADS-B
Mon 11:04:01 PM 26.7190 -81.3820 115° Southeast 509 586 33,000  Level FlightAware ADS-B
Mon 11:04:46 PM 26.6760 -81.2760 114° Southeast 511 588 33,000  Level FlightAware ADS-B
Mon 11:05:21 PM 26.6410 -81.1900 114° Southeast 511 588 33,000  Level FlightAware ADS-B
Mon 11:05:56 PM 26.6060 -81.1070 115° Southeast 511 588 33,000  Level FlightAware ADS-B
Mon 11:06:31 PM 26.5700 -81.0210 115° Southeast 513 590 33,000  Level FlightAware ADS-B
Mon 11:07:06 PM 26.5370 -80.9400 114° Southeast 512 589 33,000  Level FlightAware ADS-B
Mon 11:07:46 PM 26.4910 -80.8470 119° Southeast 515 593 33,000  Level FlightAware ADS-B
Mon 11:08:19 PM 26.4420 -80.7720 126° Southeast 512 589 33,000  Level FlightAware ADS-B
Mon 11:08:59 PM 26.3840 -80.6910 129° Southeast 517 595 33,000  Level FlightAware ADS-B
Mon 11:09:29 PM 26.3390 -80.6260 128° Southeast 517 595 33,000  Level FlightAware ADS-B
Mon 11:10:05 PM 26.2860 -80.5510 128° Southeast 518 596 33,000  Level FlightAware ADS-B
Mon 11:10:45 PM 26.2310 -80.4730 128° Southeast 518 596 33,000  Level FlightAware ADS-B
Mon 11:11:05 PM 26.1980 -80.4260 128° Southeast 519 597 33,000  Level FlightAware ADS-B
Mon 11:11:49 PM 26.1300 -80.3300 128° Southeast 519 597 33,000  Level FlightAware ADS-B
Mon 11:12:25 PM 26.0760 -80.2540 128° Southeast 519 597 33,000  Level FlightAware ADS-B
Mon 11:12:57 PM 26.0290 -80.1880 128° Southeast 518 596 33,000  Level FlightAware ADS-B
Mon 11:13:35 PM 25.9730 -80.1090 128° Southeast 514 592 33,000  Level FlightAware ADS-B
Mon 11:14:07 PM 25.9250 -80.0420 129° Southeast 513 590 33,000  Level FlightAware ADS-B
Mon 11:14:45 PM 25.8690 -79.9640 129° Southeast 512 589 33,000  Level FlightAware ADS-B
Mon 11:15:17 PM 25.8230 -79.9000 129° Southeast 512 589 33,000  Level FlightAware ADS-B
Mon 11:15:53 PM 25.7700 -79.8260 128° Southeast 511 588 33,000  Level FlightAware ADS-B
Mon 11:16:27 PM 25.7200 -79.7570 129° Southeast 511 588 33,000  Level FlightAware ADS-B
Mon 11:17:00 PM 25.6730 -79.6910 128° Southeast 504 580 33,000  Level FlightAware ADS-B
Mon 11:17:37 PM 25.6170 -79.6120 128° Southeast 507 583 33,000  Level FlightAware ADS-B
Mon 11:18:13 PM 25.5650 -79.5400 129° Southeast 506 582 33,000  Level FlightAware ADS-B
Mon 11:18:47 PM 25.5150 -79.4710 129° Southeast 506 582 33,000  Level FlightAware ADS-B
Mon 11:19:23 PM 25.4620 -79.3980 129° Southeast 502 578 33,000  Level FlightAware ADS-B
Mon 11:19:57 PM 25.4120 -79.3290 129° Southeast 500 575 33,000  Level FlightAware ADS-B
Mon 11:20:34 PM 25.3620 -79.2600 129° Southeast 495 570 33,000  Level FlightAware ADS-B
Mon 11:21:08 PM 25.3120 -79.1910 129° Southeast 497 572 33,000  Level FlightAware ADS-B
Mon 11:21:44 PM 25.2590 -79.1190 129° Southeast 498 573 33,000  Level FlightAware ADS-B
Mon 11:22:18 PM 25.2110 -79.0520 128° Southeast 497 572 33,000  Level FlightAware ADS-B
Mon 11:22:54 PM 25.1590 -78.9810 129° Southeast 498 573 33,000  Level FlightAware ADS-B
Mon 11:23:28 PM 25.1090 -78.9120 129° Southeast 498 573 33,000  Level FlightAware ADS-B
Mon 11:24:04 PM 25.0550 -78.8390 129° Southeast 499 574 33,000  Level FlightAware ADS-B
Mon 11:24:43 PM 25.0080 -78.7720 128° Southeast 499 574 33,000  Level FlightAware ADS-B
Mon 11:25:20 PM 24.9440 -78.6880 130° Southeast 500 575 33,000  Level FlightAware ADS-B
Mon 11:25:54 PM 24.8910 -78.6160 129° Southeast 507 583 33,000  Level FlightAware ADS-B
Mon 11:26:29 PM 24.8430 -78.5500 129° Southeast 509 586 33,000  Level FlightAware ADS-B
Mon 11:27:04 PM 24.7870 -78.4750 129° Southeast 511 588 33,000  Level FlightAware ADS-B
Mon 11:27:55 PM 24.7210 -78.3850 129° Southeast 511 588 33,000  Level FlightAware ADS-B
Mon 11:28:31 PM 24.6720 -78.3190 129° Southeast 511 588 33,000  Level FlightAware ADS-B
Mon 11:29:03 PM 24.6210 -78.2500 129° Southeast 511 588 33,000  Level FlightAware ADS-B
Mon 11:29:39 PM 24.5750 -78.1880 129° Southeast 511 588 33,000  Level FlightAware ADS-B
Mon 11:30:15 PM 24.5300 -78.1260 129° Southeast 511 588 33,000  Level FlightAware ADS-B
Mon 11:30:51 PM 24.4840 -78.0640 129° Southeast 511 588 33,000  Level FlightAware ADS-B
Mon 11:31:27 PM 24.4390 -78.0020 129° Southeast 511 588 33,000  Level FlightAware ADS-B
Mon 11:32:03 PM 24.3930 -77.9410 130° Southeast 511 588 33,000  Level FlightAware ADS-B
Mon 11:32:39 PM 24.3480 -77.8790 129° Southeast 511 588 33,000  Level FlightAware ADS-B
Mon 11:33:16 PM 24.3010 -77.8160 129° Southeast 511 588 33,000  Level FlightAware ADS-B
Mon 11:33:52 PM 24.2560 -77.7540 129° Southeast 511 588 33,000  Level FlightAware ADS-B
Mon 11:34:28 PM 24.2100 -77.6920 129° Southeast 511 588 33,000  Level FlightAware ADS-B
Mon 11:35:05 PM 24.1630 -77.6290 129° Southeast 511 588 33,000  Level FlightAware ADS-B
Mon 11:35:41 PM 24.1180 -77.5670 128° Southeast 511 588 33,000  Level FlightAware ADS-B
Mon 11:36:17 PM 24.0720 -77.5060 130° Southeast 511 588 33,000  Level FlightAware ADS-B
Mon 11:36:53 PM 24.0270 -77.4440 128° Southeast 511 588 33,000  Level FlightAware ADS-B
Mon 11:37:29 PM 23.9810 -77.3830 130° Southeast 511 588 33,000  Level FlightAware ADS-B
Mon 11:38:06 PM 23.9340 -77.3190 129° Southeast 511 588 33,000  Level FlightAware ADS-B
Mon 11:39:05 PM 23.5950 -77.1514 129° Southeast 513 590 33,000  Level Miami Center
Mon 11:40:05 PM 23.4928 -77.0469 137° Southeast 513 590 33,000  Level Miami Center
Mon 11:41:05 PM 23.3989 -76.9292 131° Southeast 513 590 33,000  Level Miami Center
Mon 11:42:06 PM 23.3425 -76.7889 114° Southeast 500 575 33,000  Level Miami Center
Mon 11:43:06 PM 23.2964 -76.6394 109° East 500 575 33,000  Level Miami Center
Mon 11:44:04 PM 23.2689 -76.4858 101° East 507 583 33,000  Level Miami Center
Mon 11:45:05 PM 23.2433 -76.3319 100° East 512 589 33,000  Level Miami Center
Mon 11:46:06 PM 23.2133 -76.1761 102° East 518 596 33,000  Level Miami Center
Mon 11:47:05 PM 23.1689 -76.0319 109° East 507 583 33,000  Level Miami Center
Mon 11:48:06 PM 23.0889 -75.9239 129° Southeast 505 581 33,000  Level Miami Center
Mon 11:49:05 PM 22.9919 -75.8164 134° Southeast 505 581 33,000  Level Miami Center
Mon 11:50:03 PM 22.8889 -75.7203 139° Southeast 489 563 33,000  Level Miami Center
Mon 11:51:04 PM 22.7836 -75.6242 140° Southeast 489 563 33,000  Level Miami Center
Mon 11:52:05 PM 22.6806 -75.5283 139° Southeast 489 563 33,000  Level Miami Center
Mon 11:53:05 PM 22.5772 -75.4306 139° Southeast 494 568 33,000  Level Miami Center
Mon 11:54:06 PM 22.4739 -75.3372 140° Southeast 494 568 33,000  Level Miami Center
Mon 11:55:06 PM 22.3683 -75.2397 139° Southeast 494 568 33,000  Level Miami Center
Mon 11:56:06 PM 22.2650 -75.1444 140° Southeast 494 568 33,000  Level Miami Center
Mon 11:57:05 PM 22.1617 -75.0517 140° Southeast 494 568 33,000  Level Miami Center
Mon 11:58:04 PM 22.0581 -74.9522 138° Southeast 489 563 33,000  Level Miami Center
Mon 11:59:05 PM 21.9544 -74.8597 140° Southeast 489 563 33,000  Level Miami Center
Tue 12:00:06 AM 21.8550 -74.7650 139° Southeast 489 563 33,000  Level Miami Center
Tue 12:01:06 AM 21.7408 -74.6617 140° Southeast 489 563 33,000  Level Miami Center
Tue 12:02:06 AM 21.6497 -74.5739 138° Southeast 495 570 33,000 -51 Level Miami Center
Tue 12:03:04 AM 21.5461 -74.4775 139° Southeast 489 563 32,900  Descending Miami Center
Tue 12:04:06 AM 21.4400 -74.3833 140° Southeast 489 563 33,000  Climbing Miami Center
Tue 12:05:06 AM 21.3383 -74.2894 139° Southeast 489 563 32,900  Descending Miami Center
Tue 12:06:04 AM 21.2325 -74.1958 140° Southeast 489 563 33,000 50 Climbing Miami Center
Tue 12:07:06 AM 21.1306 -74.1022 139° Southeast 489 563 33,000  Level Miami Center
Tue 12:08:06 AM 21.0203 -74.0044 140° Southeast 481 554 33,000 -50 Level Miami Center
Tue 12:09:06 AM 20.9139 -73.9067 139° Southeast 481 554 32,900 -50 Descending Miami Center
Tue 12:10:06 AM 20.8119 -73.8156 140° Southeast 482 555 32,900  Level Miami Center
Tue 12:11:04 AM 20.7100 -73.7225 140° Southeast 482 555 32,900  Level Miami Center
Tue 12:12:06 AM 20.6039 -73.6297 141° Southeast 482 555 32,900  Level Miami Center
Tue 12:13:04 AM 20.5017 -73.5347 139° Southeast 482 555 32,900 50 Level Miami Center
Tue 12:14:06 AM 20.3975 -73.4442 141° Southeast 477 549 33,000 50 Climbing Miami Center
Tue 12:15:03 AM 20.2911 -73.3494 140° Southeast 483 556 33,000  Level Miami Center
Tue 12:16:06 AM 20.1847 -73.2572 141° Southeast 489 563 33,000 -50 Level Miami Center
Tue 12:17:03 AM 20.0803 -73.1628 140° Southeast 489 563 32,900  Descending Miami Center
Tue 12:19:00 AM 19.8718 -72.9902 142° Southeast  Level FlightAware Approximate
Tue 12:26:00 AM 19.1219 -72.3744 142° Southeast  Level FlightAware Approximate
Tue 12:27:00 AM 19.0146 -72.2868 142° Southeast  Level FlightAware Approximate
Tue 12:28:00 AM 18.9073 -72.1994 142° Southeast  Level FlightAware Approximate
Tue 12:29:00 AM 18.7999 -72.1122 142° Southeast  Level FlightAware Approximate
Tue 12:30:00 AM 18.6925 -72.0250 142° Southeast  Level FlightAware Approximate
Tue 12:31:00 AM 18.5864 -71.9364 137° Southeast  Level FlightAware Approximate
Tue 12:32:00 AM 18.4838 -71.8437 146° Southeast  Level FlightAware Approximate
Tue 12:33:00 AM 18.3710 -71.7647 146° Southeast  Level FlightAware Approximate
Tue 12:34:00 AM 18.2603 -71.6823 144° Southeast  Level FlightAware Approximate
Tue 12:35:00 AM 18.1508 -71.5984 144° Southeast  Level FlightAware Approximate
Tue 12:35:34 AM 18.0600 -71.5210 144° Southeast 496 571 33,000  Level FlightAware ADS-B
Tue 12:36:12 AM 18.0010 -71.4730 142° Southeast 496 571 33,000  Level FlightAware ADS-B
Tue 12:36:48 AM 17.9460 -71.4270 141° Southeast 496 571 33,000  Level FlightAware ADS-B
Tue 12:37:20 AM 17.8740 -71.3730 144° Southeast 494 568 33,000  Level FlightAware ADS-B
Tue 12:37:56 AM 17.8190 -71.3270 141° Southeast 494 568 33,000  Level FlightAware ADS-B
Tue 12:38:33 AM 17.7620 -71.2810 142° Southeast 494 568 33,000  Level FlightAware ADS-B
Tue 12:39:09 AM 17.7070 -71.2360 142° Southeast 494 568 33,000  Level FlightAware ADS-B
Tue 12:39:45 AM 17.6520 -71.1900 141° Southeast 494 568 33,000  Level FlightAware ADS-B
Tue 12:40:21 AM 17.5970 -71.1450 142° Southeast 494 568 33,000  Level FlightAware ADS-B
Tue 12:40:57 AM 17.5420 -71.1000 142° Southeast 494 568 33,000  Level FlightAware ADS-B
Tue 12:41:33 AM 17.4870 -71.0550 142° Southeast 494 568 33,000  Level FlightAware ADS-B
Tue 12:42:10 AM 17.4300 -71.0090 142° Southeast 494 568 33,000  Level FlightAware ADS-B
Tue 12:42:46 AM 17.3750 -70.9630 141° Southeast 494 568 33,000  Level FlightAware ADS-B
Tue 12:43:23 AM 17.3180 -70.9170 142° Southeast 494 568 33,000  Level FlightAware ADS-B
Tue 12:43:59 AM 17.2630 -70.8720 142° Southeast 494 568 33,000  Level FlightAware ADS-B
Tue 12:44:35 AM 17.2080 -70.8270 142° Southeast 494 568 33,000  Level FlightAware ADS-B
Tue 12:45:11 AM 17.1530 -70.7820 142° Southeast 494 568 33,000  Level FlightAware ADS-B
Tue 12:45:47 AM 17.0980 -70.7370 142° Southeast 494 568 33,000  Level FlightAware ADS-B
Tue 12:46:23 AM 17.0430 -70.6920 142° Southeast 494 568 33,000  Level FlightAware ADS-B
Tue 12:48:45 AM 16.5900 -70.3700 146° Southeast 509 586 33,000  Level FlightAware ADS-B
Tue 12:49:19 AM 16.5340 -70.3260 143° Southeast 510 587 33,000  Level FlightAware ADS-B
Tue 12:49:55 AM 16.4760 -70.2810 143° Southeast 510 587 33,000  Level FlightAware ADS-B
Tue 12:50:31 AM 16.4180 -70.2350 143° Southeast 510 587 33,000  Level FlightAware ADS-B
Tue 12:51:08 AM 16.3590 -70.1890 143° Southeast 510 587 33,000  Level FlightAware ADS-B
Tue 12:51:45 AM 16.3000 -70.1420 143° Southeast 510 587 33,000  Level FlightAware ADS-B
Tue 12:52:21 AM 16.2420 -70.0970 143° Southeast 510 587 33,000  Level FlightAware ADS-B
Tue 12:52:55 AM 16.1880 -70.0540 143° Southeast 510 587 33,000  Level FlightAware ADS-B
Tue 12:53:32 AM 16.1280 -70.0080 144° Southeast 510 587 33,000  Level FlightAware ADS-B
Tue 12:54:19 AM 15.9550 -69.8810 145° Southeast 514 592 33,000  Level FlightAware ADS-B
Tue 12:55:04 AM 15.8830 -69.8270 144° Southeast 514 592 33,000 63 Level FlightAware ADS-B
Tue 12:55:54 AM 15.7810 -69.7530 145° Southeast 513 590 33,100 279 Climbing FlightAware ADS-B
Tue 12:56:30 AM 15.7110 -69.7020 145° Southeast 513 590 33,400 738 Climbing FlightAware ADS-B
Tue 12:56:59 AM 15.6450 -69.6550 146° Southeast 511 588 33,900 738 Climbing FlightAware ADS-B
Tue 12:57:35 AM 15.5750 -69.6030 144° Southeast 513 590 34,200 512 Climbing FlightAware ADS-B
Tue 12:58:21 AM 15.4860 -69.5380 145° Southeast 513 590 34,600 494 Climbing FlightAware ADS-B
Tue 12:59:00 AM 15.4100 -69.4830 145° Southeast 512 589 34,900 300 Climbing FlightAware ADS-B
Tue 12:59:41 AM 15.3300 -69.4250 145° Southeast 510 587 35,000 75 Climbing FlightAware ADS-B
Tue 01:00:20 AM 15.2540 -69.3690 145° Southeast 509 586 35,000  Level FlightAware ADS-B
Tue 01:00:51 AM 15.1950 -69.3260 145° Southeast 508 585 35,000  Level FlightAware ADS-B
Tue 01:01:25 AM 15.1380 -69.2840 145° Southeast 509 586 35,000  Level FlightAware ADS-B
Tue 01:02:06 AM 15.0500 -69.2210 145° Southeast 509 586 35,000  Level FlightAware ADS-B
Tue 01:02:36 AM 14.9930 -69.1790 145° Southeast 508 585 35,000  Level FlightAware ADS-B
Tue 01:03:13 AM 14.9240 -69.1290 145° Southeast 508 585 35,000  Level FlightAware ADS-B
Tue 01:03:46 AM 14.8560 -69.0800 145° Southeast 510 587 35,000  Level FlightAware ADS-B
Tue 01:04:21 AM 14.7890 -69.0310 145° Southeast 508 585 35,000  Level FlightAware ADS-B
Tue 01:04:56 AM 14.7220 -68.9830 145° Southeast 507 583 35,000  Level FlightAware ADS-B
Tue 01:05:31 AM 14.6530 -68.9330 145° Southeast 507 583 35,000  Level FlightAware ADS-B
Tue 01:06:06 AM 14.5880 -68.8860 145° Southeast 508 585 35,000  Level FlightAware ADS-B
Tue 01:06:43 AM 14.5180 -68.8360 145° Southeast 508 585 35,000  Level FlightAware ADS-B
Tue 01:07:21 AM 14.4430 -68.7810 145° Southeast 510 587 35,000  Level FlightAware ADS-B
Tue 01:07:51 AM 14.3830 -68.7380 145° Southeast 510 587 35,000  Level FlightAware ADS-B
Tue 01:08:27 AM 14.3150 -68.6890 145° Southeast 509 586 35,000  Level FlightAware ADS-B
Tue 01:09:01 AM 14.2480 -68.6410 145° Southeast 509 586 35,000  Level FlightAware ADS-B
Tue 01:09:37 AM 14.1790 -68.5910 145° Southeast 509 586 35,000  Level FlightAware ADS-B
Tue 01:10:13 AM 14.1100 -68.5420 145° Southeast 509 586 35,000  Level FlightAware ADS-B
Tue 01:10:48 AM 14.0420 -68.4930 145° Southeast 509 586 35,000  Level FlightAware ADS-B
Tue 01:11:22 AM 13.9760 -68.4450 145° Southeast 509 586 35,000  Level FlightAware ADS-B
Tue 01:11:53 AM 13.9160 -68.4030 146° Southeast 509 586 35,000  Level FlightAware ADS-B
Tue 01:12:32 AM 13.8400 -68.3480 145° Southeast 509 586 35,000  Level FlightAware ADS-B
Tue 01:13:09 AM 13.7700 -68.2980 145° Southeast 508 585 35,000  Level FlightAware ADS-B
Tue 01:13:42 AM 13.7040 -68.2510 145° Southeast 507 583 35,000  Level FlightAware ADS-B
Tue 01:14:18 AM 13.6370 -68.2020 145° Southeast 507 583 35,000  Level FlightAware ADS-B
Tue 01:14:53 AM 13.5670 -68.1530 146° Southeast 506 582 35,000  Level FlightAware ADS-B
Tue 01:15:29 AM 13.4990 -68.1040 145° Southeast 506 582 35,000  Level FlightAware ADS-B
Tue 01:16:03 AM 13.4320 -68.0560 145° Southeast 498 573 35,000  Level FlightAware ADS-B
Tue 01:16:35 AM 13.3750 -68.0150 145° Southeast 498 573 35,000  Level FlightAware ADS-B
Tue 01:17:13 AM 13.2980 -67.9610 146° Southeast 498 573 35,000  Level FlightAware ADS-B
Tue 01:17:49 AM 13.2300 -67.9120 145° Southeast 497 572 35,000  Level FlightAware ADS-B
Tue 01:18:23 AM 13.1640 -67.8650 145° Southeast 494 568 35,000  Level FlightAware ADS-B
Tue 01:19:04 AM 13.0860 -67.8100 146° Southeast 492 566 35,000  Level FlightAware ADS-B
Tue 01:19:43 AM 13.0120 -67.7570 145° Southeast 492 566 35,000  Level FlightAware ADS-B
Tue 01:20:14 AM 12.9540 -67.7160 145° Southeast 492 566 35,000  Level FlightAware ADS-B
Tue 01:20:48 AM 12.8890 -67.6700 145° Southeast 494 568 35,000  Level FlightAware ADS-B
Tue 01:21:24 AM 12.8200 -67.6210 145° Southeast 494 568 35,000  Level FlightAware ADS-B
Tue 01:21:59 AM 12.7530 -67.5740 146° Southeast 494 568 35,000  Level FlightAware ADS-B
Tue 01:22:35 AM 12.6850 -67.5260 145° Southeast 494 568 35,000  Level FlightAware ADS-B
Tue 01:23:09 AM 12.6180 -67.4790 146° Southeast 494 568 35,000  Level FlightAware ADS-B
Tue 01:23:45 AM 12.5510 -67.4320 146° Southeast 495 570 35,000  Level FlightAware ADS-B
Tue 01:24:19 AM 12.4840 -67.3850 146° Southeast 495 570 35,000  Level FlightAware ADS-B
Tue 01:24:55 AM 12.4180 -67.3380 145° Southeast 495 570 35,000  Level FlightAware ADS-B
Tue 01:25:29 AM 12.3500 -67.2910 146° Southeast 504 580 35,000  Level FlightAware ADS-B
Tue 01:26:05 AM 12.2820 -67.2430 145° Southeast 504 580 35,000  Level FlightAware ADS-B
Tue 01:26:39 AM 12.2130 -67.1950 146° Southeast 506 582 35,000  Level FlightAware ADS-B
Tue 01:27:14 AM 12.1460 -67.1480 146° Southeast 509 586 35,000  Level FlightAware ADS-B
Tue 01:27:54 AM 12.0690 -67.0940 146° Southeast 509 586 35,000  Level FlightAware ADS-B
Tue 01:28:30 AM 12.0000 -67.0460 146° Southeast 509 586 35,000  Level FlightAware ADS-B
Tue 01:29:05 AM 11.9310 -66.9970 145° Southeast 509 586 35,000  Level FlightAware ADS-B
Tue 01:29:40 AM 11.8620 -66.9490 146° Southeast 510 587 35,000  Level FlightAware ADS-B
Tue 01:30:16 AM 11.7920 -66.9000 146° Southeast 511 588 35,000  Level FlightAware ADS-B
Tue 01:30:50 AM 11.7250 -66.8530 146° Southeast 512 589 35,000  Level FlightAware ADS-B
Tue 01:31:26 AM 11.6610 -66.8010 141° Southeast 507 583 35,000  Level FlightAware ADS-B
Tue 01:32:05 AM 11.5940 -66.7340 136° Southeast 507 583 35,000  Level FlightAware ADS-B
Tue 01:32:36 AM 11.5450 -66.6800 133° Southeast 506 582 35,000  Level FlightAware ADS-B
Tue 01:33:10 AM 11.4920 -66.6190 132° Southeast 507 583 35,000  Level FlightAware ADS-B
Tue 01:33:46 AM 11.4360 -66.5560 132° Southeast 507 583 35,000  Level FlightAware ADS-B
Tue 01:34:31 AM 11.3670 -66.4770 132° Southeast 506 582 35,000  Level FlightAware ADS-B
Tue 01:35:01 AM 11.3220 -66.4250 131° Southeast 500 575 35,000  Level FlightAware ADS-B
Tue 01:35:40 AM 11.2580 -66.3510 131° Southeast 501 577 35,000  Level FlightAware ADS-B
Tue 01:36:17 AM 11.2040 -66.2890 132° Southeast 502 578 35,000  Level FlightAware ADS-B
Tue 01:36:57 AM 11.1420 -66.2170 131° Southeast 508 585 35,000  Level FlightAware ADS-B
Tue 01:37:36 AM 11.0910 -66.1570 131° Southeast 508 585 35,000  Level FlightAware ADS-B
Tue 01:38:15 AM 11.0400 -66.0970 131° Southeast 508 585 35,000  Level FlightAware ADS-B
Tue 01:38:52 AM 10.9910 -66.0400 131° Southeast 508 585 35,000  Level FlightAware ADS-B
Tue 01:39:28 AM 10.9440 -65.9850 131° Southeast 508 585 35,000  Level FlightAware ADS-B
Tue 01:40:04 AM 10.8970 -65.9300 131° Southeast 508 585 35,000  Level FlightAware ADS-B
Tue 01:40:40 AM 10.8500 -65.8740 131° Southeast 508 585 35,000  Level FlightAware ADS-B
Tue 01:41:16 AM 10.8020 -65.8190 132° Southeast 508 585 35,000  Level FlightAware ADS-B
Tue 01:41:53 AM 10.7540 -65.7620 131° Southeast 508 585 35,000  Level FlightAware ADS-B
Tue 01:42:29 AM 10.7070 -65.7070 131° Southeast 508 585 35,000  Level FlightAware ADS-B
Tue 01:43:06 AM 10.6580 -65.6500 131° Southeast 508 585 35,000  Level FlightAware ADS-B
Tue 01:43:42 AM 10.6110 -65.5950 131° Southeast 508 585 35,000  Level FlightAware ADS-B
Tue 01:44:18 AM 10.5640 -65.5400 131° Southeast 508 585 35,000  Level FlightAware ADS-B
Tue 01:44:54 AM 10.5170 -65.4850 131° Southeast 508 585 35,000  Level FlightAware ADS-B
Tue 01:45:30 AM 10.4690 -65.4290 131° Southeast 508 585 35,000  Level FlightAware ADS-B
Tue 01:46:07 AM 10.4210 -65.3730 131° Southeast 508 585 35,000  Level FlightAware ADS-B
Tue 01:46:43 AM 10.3740 -65.3170 130° Southeast 508 585 35,000  Level FlightAware ADS-B
Tue 01:49:00 AM 10.1061 -65.1697 152° Southeast  Level Estimated
Tue 01:49:08 AM 9.8510 -65.1260 152° Southeast 515 593 35,000  Level FlightAware ADS-B
Tue 01:49:49 AM 9.7670 -65.1040 166° South 515 593 35,000  Level FlightAware ADS-B
Tue 01:50:25 AM 9.6960 -65.0840 164° South 515 593 35,000  Level FlightAware ADS-B
Tue 01:51:01 AM 9.6260 -65.0650 165° South 515 593 35,000  Level FlightAware ADS-B
Tue 01:51:37 AM 9.5550 -65.0460 165° South 515 593 35,000  Level FlightAware ADS-B
Tue 01:52:13 AM 9.4850 -65.0270 165° South 515 593 35,000  Level FlightAware ADS-B
Tue 01:52:49 AM 9.4150 -65.0080 165° South 515 593 35,000  Level FlightAware ADS-B
Tue 01:53:25 AM 9.3440 -64.9890 165° South 515 593 35,000  Level FlightAware ADS-B
Tue 01:54:01 AM 9.2740 -64.9700 165° South 515 593 35,000  Level FlightAware ADS-B
Tue 01:54:37 AM 9.2030 -64.9510 165° South 515 593 35,000  Level FlightAware ADS-B
Tue 01:55:13 AM 9.1330 -64.9310 164° South 515 593 35,000  Level FlightAware ADS-B
Tue 01:55:49 AM 9.0620 -64.9120 165° South 515 593 35,000  Level FlightAware ADS-B
Tue 01:56:25 AM 8.9920 -64.8930 165° South 515 593 35,000  Level FlightAware ADS-B
Tue 01:57:01 AM 8.9220 -64.8740 165° South 515 593 35,000  Level FlightAware ADS-B
Tue 01:57:38 AM 8.8490 -64.8540 165° South 515 593 35,000  Level FlightAware ADS-B
Tue 01:58:14 AM 8.7790 -64.8350 165° South 515 593 35,000  Level FlightAware ADS-B
Tue 01:58:50 AM 8.7080 -64.8160 165° South 515 593 35,000  Level FlightAware ADS-B
Tue 02:01:00 AM 8.4721 -64.6472 145° Southeast  Level FlightAware Approximate
Tue 02:02:00 AM 8.3632 -64.5693 145° Southeast  Level FlightAware Approximate
Tue 02:03:00 AM 8.2543 -64.4915 145° Southeast  Level FlightAware Approximate
Tue 02:04:00 AM 8.1454 -64.4138 145° Southeast  Level FlightAware Approximate
Tue 02:04:38 AM 8.1980 -63.9090 145° Southeast 494 568 35,000  Level FlightAware ADS-B
Tue 02:05:28 AM 8.1520 -63.8150 116° Southeast 493 567 35,000  Level FlightAware ADS-B
Tue 02:06:04 AM 8.1220 -63.7520 116° Southeast 493 567 35,000  Level FlightAware ADS-B
Tue 02:06:41 AM 8.0900 -63.6870 116° Southeast 493 567 35,000  Level FlightAware ADS-B
Tue 02:07:17 AM 8.0600 -63.6230 115° Southeast 493 567 35,000  Level FlightAware ADS-B
Tue 02:07:52 AM 8.0200 -63.5060 109° East 489 563 35,000  Level FlightAware ADS-B
Tue 02:08:22 AM 7.9980 -63.4420 109° East 491 565 35,000  Level FlightAware ADS-B
Tue 02:09:06 AM 7.9630 -63.3450 110° East 493 567 35,000  Level FlightAware ADS-B
Tue 02:09:36 AM 7.9450 -63.2900 108° East 493 567 35,000  Level FlightAware ADS-B
Tue 02:10:13 AM 7.9210 -63.2220 110° East 493 567 35,000  Level FlightAware ADS-B
Tue 02:10:54 AM 7.8830 -63.1210 111° Southeast 493 567 35,000  Level FlightAware ADS-B
Tue 02:11:28 AM 7.8460 -63.0440 116° Southeast 495 570 35,000  Level FlightAware ADS-B
Tue 02:12:24 AM 7.7890 -62.9340 118° Southeast 496 571 35,000  Level FlightAware ADS-B
Tue 02:13:03 AM 7.7440 -62.8500 118° Southeast 498 573 35,000  Level FlightAware ADS-B
Tue 02:13:36 AM 7.6980 -62.7840 125° Southeast 499 574 35,000  Level FlightAware ADS-B
Tue 02:14:26 AM 7.6150 -62.7050 137° Southeast 496 571 35,000  Level FlightAware ADS-B
Tue 02:15:04 AM 7.5590 -62.6560 139° Southeast 496 571 35,000  Level FlightAware ADS-B
Tue 02:15:40 AM 7.5060 -62.6090 139° Southeast 496 571 35,000  Level FlightAware ADS-B
Tue 02:16:16 AM 7.4530 -62.5630 139° Southeast 496 571 35,000  Level FlightAware ADS-B
Tue 02:16:52 AM 7.4000 -62.5160 139° Southeast 496 571 35,000  Level FlightAware ADS-B
Tue 02:17:28 AM 7.3470 -62.4700 139° Southeast 496 571 35,000  Level FlightAware ADS-B
Tue 02:18:04 AM 7.2940 -62.4240 139° Southeast 496 571 35,000  Level FlightAware ADS-B
Tue 02:18:42 AM 7.2380 -62.3740 138° Southeast 496 571 35,000  Level FlightAware ADS-B
Tue 02:19:18 AM 7.1850 -62.3280 139° Southeast 496 571 35,000  Level FlightAware ADS-B
Tue 02:19:55 AM 7.1300 -62.2800 139° Southeast 496 571 35,000  Level FlightAware ADS-B
Tue 02:20:31 AM 7.0770 -62.2340 139° Southeast 496 571 35,000  Level FlightAware ADS-B
Tue 02:21:07 AM 7.0240 -62.1870 139° Southeast 496 571 35,000  Level FlightAware ADS-B
Tue 02:21:43 AM 6.9710 -62.1410 139° Southeast 496 571 35,000  Level FlightAware ADS-B
Tue 02:22:19 AM 6.9180 -62.0950 139° Southeast 496 571 35,000  Level FlightAware ADS-B
Tue 02:22:55 AM 6.8650 -62.0480 139° Southeast 496 571 35,000  Level FlightAware ADS-B
Tue 02:23:31 AM 6.8120 -62.0020 139° Southeast 496 571 35,000  Level FlightAware ADS-B
Tue 02:24:07 AM 6.7590 -61.9550 139° Southeast 496 571 35,000 10 Level FlightAware ADS-B
Tue 02:26:00 AM 6.5335 -61.8436 154° Southeast  Level Estimated
Tue 02:27:00 AM 6.4138 -61.7844 154° Southeast  Level Estimated
Tue 02:28:00 AM 6.2940 -61.7253 154° Southeast  Level Estimated
Tue 02:29:00 AM 6.1743 -61.6663 154° Southeast  Level Estimated
Tue 02:30:00 AM 6.0545 -61.6072 154° Southeast  Level Estimated
Tue 02:31:00 AM 5.9347 -61.5482 154° Southeast  Level Estimated
Tue 02:32:00 AM 5.8149 -61.4892 154° Southeast  Level Estimated
Tue 02:33:00 AM 5.6952 -61.4302 154° Southeast  Level Estimated
Tue 02:34:00 AM 5.5754 -61.3713 154° Southeast  Level Estimated
Tue 02:35:00 AM 5.4556 -61.3124 154° Southeast  Level Estimated
Tue 02:36:00 AM 5.3358 -61.2535 154° Southeast  Level Estimated
Tue 02:37:00 AM 5.2160 -61.1946 154° Southeast  Level Estimated
Tue 02:38:00 AM 5.0961 -61.1358 154° Southeast  Level Estimated
Tue 02:39:00 AM 4.9763 -61.0770 154° Southeast  Level Estimated
Tue 02:40:00 AM 4.8565 -61.0181 154° Southeast  Level Estimated
Tue 02:41:00 AM 4.7367 -60.9594 154° Southeast  Level Estimated
Tue 02:42:00 AM 4.6168 -60.9006 154° Southeast  Level Estimated
Tue 02:43:00 AM 4.4970 -60.8419 154° Southeast  Level Estimated
Tue 02:44:00 AM 4.3772 -60.7831 154° Southeast  Level Estimated
Tue 02:45:00 AM 4.2573 -60.7244 154° Southeast  Level Estimated
Tue 02:46:00 AM 4.1375 -60.6657 154° Southeast  Level Estimated
Tue 02:47:00 AM 4.0176 -60.6071 154° Southeast  Level Estimated
Tue 02:48:00 AM 3.8977 -60.5484 154° Southeast  Level Estimated
Tue 02:49:00 AM 3.7779 -60.4898 154° Southeast  Level Estimated
Tue 02:50:00 AM 3.6580 -60.4311 154° Southeast  Level Estimated
Tue 02:51:00 AM 3.5382 -60.3725 154° Southeast  Level Estimated
Tue 02:52:00 AM 3.4199 -60.3148 154° Southeast  Level Estimated
Tue 02:53:00 AM 3.3017 -60.2570 154° Southeast  Level Estimated
Tue 02:54:00 AM 3.1835 -60.1992 154° Southeast  Level Estimated
Tue 02:55:00 AM 3.0652 -60.1415 154° Southeast  Level Estimated
Tue 02:56:00 AM 2.9470 -60.0838 154° Southeast  Level Estimated
Tue 02:57:00 AM 2.8288 -60.0261 154° Southeast  Level Estimated
Tue 02:58:00 AM 2.7105 -59.9683 154° Southeast  Level Estimated
Tue 02:59:00 AM 2.5923 -59.9107 154° Southeast  Level Estimated
Tue 03:00:00 AM 2.4740 -59.8530 154° Southeast  Level Estimated
Tue 03:01:00 AM 2.3558 -59.7953 154° Southeast  Level Estimated
Tue 03:02:00 AM 2.2375 -59.7377 154° Southeast  Level Estimated
Tue 03:03:00 AM 2.1193 -59.6800 154° Southeast  Level Estimated
Tue 03:04:00 AM 2.0010 -59.6224 154° Southeast  Level Estimated
Tue 03:05:00 AM 1.8828 -59.5647 154° Southeast  Level Estimated
Tue 03:06:00 AM 1.7645 -59.5071 154° Southeast  Level Estimated
Tue 03:07:00 AM 1.6463 -59.4495 154° Southeast  Level Estimated
Tue 03:08:00 AM 1.5280 -59.3919 154° Southeast  Level Estimated
Tue 03:09:00 AM 1.4097 -59.3343 154° Southeast  Level Estimated
Tue 03:10:00 AM 1.2915 -59.2766 154° Southeast  Level Estimated
Tue 03:11:00 AM 1.1732 -59.2191 154° Southeast  Level Estimated
Tue 03:12:00 AM 1.0549 -59.1615 154° Southeast  Level Estimated
Tue 03:13:00 AM 0.9366 -59.1039 154° Southeast  Level Estimated
Tue 03:14:00 AM 0.8184 -59.0463 154° Southeast  Level Estimated
Tue 03:15:00 AM 0.7001 -58.9887 154° Southeast  Level Estimated
Tue 03:16:00 AM 0.5818 -58.9311 154° Southeast  Level Estimated
Tue 03:17:00 AM 0.4636 -58.8736 154° Southeast  Level Estimated
Tue 03:18:00 AM 0.3453 -58.8160 154° Southeast  Level Estimated
Tue 03:19:00 AM 0.2270 -58.7584 154° Southeast  Level Estimated
Tue 03:20:00 AM 0.1088 -58.7009 154° Southeast  Level Estimated
Tue 03:21:00 AM -0.0095 -58.6433 154° Southeast  Level Estimated
Tue 03:22:00 AM -0.1278 -58.5857 154° Southeast  Level Estimated
Tue 03:23:00 AM -0.2461 -58.5281 154° Southeast  Level Estimated
Tue 03:24:00 AM -0.3643 -58.4706 154° Southeast  Level Estimated
Tue 03:25:00 AM -0.4826 -58.4130 154° Southeast  Level Estimated
Tue 03:26:00 AM -0.6009 -58.3554 154° Southeast  Level Estimated
Tue 03:27:00 AM -0.7191 -58.2979 154° Southeast  Level Estimated
Tue 03:28:00 AM -0.8374 -58.2403 154° Southeast  Level Estimated
Tue 03:29:00 AM -0.9557 -58.1827 154° Southeast  Level Estimated
Tue 03:30:00 AM -1.0739 -58.1251 154° Southeast  Level Estimated
Tue 03:31:00 AM -1.1922 -58.0675 154° Southeast  Level Estimated
Tue 03:32:00 AM -1.3105 -58.0099 154° Southeast  Level Estimated
Tue 03:33:00 AM -1.4288 -57.9523 154° Southeast  Level Estimated
Tue 03:34:00 AM -1.5470 -57.8947 154° Southeast  Level Estimated
Tue 03:35:00 AM -1.6653 -57.8371 154° Southeast  Level Estimated
Tue 03:36:00 AM -1.7835 -57.7795 154° Southeast  Level Estimated
Tue 03:37:00 AM -1.9018 -57.7218 154° Southeast  Level Estimated
Tue 03:38:00 AM -2.0201 -57.6642 154° Southeast  Level Estimated
Tue 03:39:00 AM -2.1383 -57.6066 154° Southeast  Level Estimated
Tue 03:40:00 AM -2.2566 -57.5489 154° Southeast  Level Estimated
Tue 03:41:00 AM -2.3748 -57.4912 154° Southeast  Level Estimated
Tue 03:42:00 AM -2.4931 -57.4336 154° Southeast  Level Estimated
Tue 03:43:00 AM -2.6113 -57.3759 154° Southeast  Level Estimated
Tue 03:44:00 AM -2.7295 -57.3182 154° Southeast  Level Estimated
Tue 03:45:00 AM -2.8478 -57.2605 154° Southeast  Level Estimated
Tue 03:46:00 AM -2.9660 -57.2028 154° Southeast  Level Estimated
Tue 03:47:00 AM -3.0842 -57.1451 154° Southeast  Level Estimated
Tue 03:48:00 AM -3.2025 -57.0873 154° Southeast  Level Estimated
Tue 03:49:00 AM -3.3207 -57.0295 154° Southeast  Level Estimated
Tue 03:50:00 AM -3.4389 -56.9718 154° Southeast  Level Estimated
Tue 03:51:00 AM -3.5571 -56.9140 154° Southeast  Level Estimated
Tue 03:52:00 AM -3.6754 -56.8562 154° Southeast  Level Estimated
Tue 03:53:00 AM -3.7936 -56.7984 154° Southeast  Level Estimated
Tue 03:54:00 AM -3.9118 -56.7406 154° Southeast  Level Estimated
Tue 03:55:00 AM -4.0300 -56.6827 154° Southeast  Level Estimated
Tue 03:56:00 AM -4.1482 -56.6249 154° Southeast  Level Estimated
Tue 03:57:00 AM -4.2664 -56.5670 154° Southeast  Level Estimated
Tue 03:58:00 AM -4.3846 -56.5091 154° Southeast  Level Estimated
Tue 03:59:00 AM -4.5028 -56.4511 154° Southeast  Level Estimated
Tue 04:00:00 AM -4.6210 -56.3932 154° Southeast  Level Estimated
Tue 04:01:00 AM -4.7391 -56.3353 154° Southeast  Level Estimated
Tue 04:02:00 AM -4.8573 -56.2773 154° Southeast  Level Estimated
Tue 04:03:00 AM -4.9755 -56.2193 154° Southeast  Level Estimated
Tue 04:04:00 AM -5.0936 -56.1613 154° Southeast  Level Estimated
Tue 04:05:00 AM -5.2118 -56.1032 154° Southeast  Level Estimated
Tue 04:06:00 AM -5.3299 -56.0452 154° Southeast  Level Estimated
Tue 04:07:00 AM -5.4481 -55.9871 154° Southeast  Level Estimated
Tue 04:08:00 AM -5.5662 -55.9290 154° Southeast  Level Estimated
Tue 04:09:00 AM -5.6844 -55.8709 154° Southeast  Level Estimated
Tue 04:10:00 AM -5.8025 -55.8127 154° Southeast  Level Estimated
Tue 04:11:00 AM -5.9206 -55.7545 154° Southeast  Level Estimated
Tue 04:12:00 AM -6.0388 -55.6963 154° Southeast  Level Estimated
Tue 04:13:00 AM -6.1569 -55.6381 154° Southeast  Level Estimated
Tue 04:14:00 AM -6.2750 -55.5799 154° Southeast  Level Estimated
Tue 04:15:00 AM -6.3931 -55.5216 154° Southeast  Level Estimated
Tue 04:16:00 AM -6.5112 -55.4633 154° Southeast  Level Estimated
Tue 04:17:00 AM -6.6293 -55.4049 154° Southeast  Level Estimated
Tue 04:18:00 AM -6.7473 -55.3466 154° Southeast  Level Estimated
Tue 04:19:00 AM -6.8654 -55.2882 154° Southeast  Level Estimated
Tue 04:20:00 AM -6.9835 -55.2298 154° Southeast  Level Estimated
Tue 04:21:00 AM -7.1015 -55.1713 154° Southeast  Level Estimated
Tue 04:22:00 AM -7.2196 -55.1128 154° Southeast  Level Estimated
Tue 04:23:00 AM -7.3376 -55.0543 154° Southeast  Level Estimated
Tue 04:24:00 AM -7.4557 -54.9958 154° Southeast  Level Estimated
Tue 04:25:00 AM -7.5737 -54.9372 154° Southeast  Level Estimated
Tue 04:26:00 AM -7.6917 -54.8786 154° Southeast  Level Estimated
Tue 04:27:00 AM -7.8097 -54.8200 154° Southeast  Level Estimated
Tue 04:28:00 AM -7.9277 -54.7613 154° Southeast  Level Estimated
Tue 04:29:00 AM -8.0457 -54.7026 154° Southeast  Level Estimated
Tue 04:30:00 AM -8.1637 -54.6439 154° Southeast  Level Estimated
Tue 04:31:00 AM -8.2817 -54.5851 154° Southeast  Level Estimated
Tue 04:32:00 AM -8.3997 -54.5263 154° Southeast  Level Estimated
Tue 04:33:00 AM -8.5176 -54.4674 154° Southeast  Level Estimated
Tue 04:34:00 AM -8.6356 -54.4086 154° Southeast  Level Estimated
Tue 04:35:00 AM -8.7535 -54.3497 154° Southeast  Level Estimated
Tue 04:36:00 AM -8.8713 -54.2908 154° Southeast  Level Estimated
Tue 04:37:00 AM -8.9890 -54.2319 154° Southeast  Level Estimated
Tue 04:38:00 AM -9.1067 -54.1730 154° Southeast  Level Estimated
Tue 04:39:00 AM -9.2244 -54.1140 154° Southeast  Level Estimated
Tue 04:40:00 AM -9.3421 -54.0550 154° Southeast  Level Estimated
Tue 04:41:00 AM -9.4598 -53.9960 154° Southeast  Level Estimated
Tue 04:42:00 AM -9.5775 -53.9369 154° Southeast  Level Estimated
Tue 04:43:00 AM -9.6952 -53.8778 154° Southeast  Level Estimated
Tue 04:44:00 AM -9.8128 -53.8186 154° Southeast  Level Estimated
Tue 04:45:00 AM -9.9305 -53.7594 154° Southeast  Level Estimated
Tue 04:46:00 AM -10.0481 -53.7001 154° Southeast  Level Estimated
Tue 04:47:00 AM -10.1657 -53.6408 154° Southeast  Level Estimated
Tue 04:48:00 AM -10.2833 -53.5815 154° Southeast  Level Estimated
Tue 04:49:00 AM -10.4009 -53.5221 154° Southeast  Level Estimated
Tue 04:50:00 AM -10.5185 -53.4627 154° Southeast  Level Estimated
Tue 04:51:00 AM -10.6361 -53.4032 154° Southeast  Level Estimated
Tue 04:52:00 AM -10.7537 -53.3437 154° Southeast  Level Estimated
Tue 04:53:00 AM -10.8712 -53.2841 154° Southeast  Level Estimated
Tue 04:54:00 AM -10.9888 -53.2245 154° Southeast  Level Estimated
Tue 04:55:00 AM -11.1063 -53.1648 154° Southeast  Level Estimated
Tue 04:56:00 AM -11.2238 -53.1051 154° Southeast  Level Estimated
Tue 04:57:00 AM -11.3413 -53.0454 154° Southeast  Level Estimated
Tue 04:58:00 AM -11.4588 -52.9856 153° Southeast  Level Estimated
Tue 04:59:00 AM -11.5763 -52.9257 153° Southeast  Level Estimated
Tue 05:00:00 AM -11.6938 -52.8658 153° Southeast  Level Estimated
Tue 05:01:00 AM -11.8113 -52.8058 153° Southeast  Level Estimated
Tue 05:02:00 AM -11.9287 -52.7458 153° Southeast  Level Estimated
Tue 05:03:00 AM -12.0462 -52.6858 153° Southeast  Level Estimated
Tue 05:04:00 AM -12.1636 -52.6257 153° Southeast  Level Estimated
Tue 05:05:00 AM -12.2810 -52.5655 153° Southeast  Level Estimated
Tue 05:06:00 AM -12.3984 -52.5053 153° Southeast  Level Estimated
Tue 05:07:00 AM -12.5158 -52.4450 153° Southeast  Level Estimated
Tue 05:08:00 AM -12.6332 -52.3847 153° Southeast  Level Estimated
Tue 05:09:00 AM -12.7505 -52.3243 153° Southeast  Level Estimated
Tue 05:10:00 AM -12.8679 -52.2639 153° Southeast  Level Estimated
Tue 05:11:00 AM -12.9852 -52.2034 153° Southeast  Level Estimated
Tue 05:12:00 AM -13.1025 -52.1428 153° Southeast  Level Estimated
Tue 05:13:00 AM -13.2198 -52.0822 153° Southeast  Level Estimated
Tue 05:14:00 AM -13.3371 -52.0215 153° Southeast  Level Estimated
Tue 05:15:00 AM -13.4544 -51.9608 153° Southeast  Level Estimated
Tue 05:16:00 AM -13.5716 -51.9000 153° Southeast  Level Estimated
Tue 05:17:00 AM -13.6889 -51.8391 153° Southeast  Level Estimated
Tue 05:18:00 AM -13.8061 -51.7782 153° Southeast  Level Estimated
Tue 05:19:00 AM -13.9233 -51.7173 153° Southeast  Level Estimated
Tue 05:20:00 AM -14.0405 -51.6562 153° Southeast  Level Estimated
Tue 05:21:00 AM -14.1577 -51.5951 153° Southeast  Level Estimated
Tue 05:22:00 AM -14.2749 -51.5340 153° Southeast  Level Estimated
Tue 05:23:00 AM -14.3920 -51.4728 153° Southeast  Level Estimated
Tue 05:24:00 AM -14.5091 -51.4115 153° Southeast  Level Estimated
Tue 05:25:00 AM -14.6263 -51.3501 153° Southeast  Level Estimated
Tue 05:26:00 AM -14.7434 -51.2887 153° Southeast  Level Estimated
Tue 05:27:00 AM -14.8605 -51.2272 153° Southeast  Level Estimated
Tue 05:28:00 AM -14.9775 -51.1657 153° Southeast  Level Estimated
Tue 05:29:00 AM -15.0946 -51.1041 153° Southeast  Level Estimated
Tue 05:30:00 AM -15.2116 -51.0424 153° Southeast  Level Estimated
Tue 05:31:00 AM -15.3287 -50.9806 153° Southeast  Level Estimated
Tue 05:32:00 AM -15.4457 -50.9188 153° Southeast  Level Estimated
Tue 05:33:00 AM -15.5627 -50.8569 153° Southeast  Level Estimated
Tue 05:34:00 AM -15.6796 -50.7950 153° Southeast  Level Estimated
Tue 05:35:00 AM -15.7966 -50.7329 153° Southeast  Level Estimated
Tue 05:36:00 AM -15.9135 -50.6708 153° Southeast  Level Estimated
Tue 05:37:00 AM -16.0304 -50.6086 153° Southeast  Level Estimated
Tue 05:38:00 AM -16.1473 -50.5464 153° Southeast  Level Estimated
Tue 05:39:00 AM -16.2642 -50.4841 153° Southeast  Level Estimated
Tue 05:40:00 AM -16.3811 -50.4217 153° Southeast  Level Estimated
Tue 05:41:00 AM -16.4979 -50.3592 153° Southeast  Level Estimated
Tue 05:42:00 AM -16.6148 -50.2966 153° Southeast  Level Estimated
Tue 05:43:00 AM -16.7316 -50.2340 153° Southeast  Level Estimated
Tue 05:44:00 AM -16.8484 -50.1713 153° Southeast  Level Estimated
Tue 05:45:00 AM -16.9651 -50.1086 153° Southeast  Level Estimated
Tue 05:45:45 AM -17.9640 -50.0490 153° Southeast 505 581 37,000  Level FlightAware ADS-B
Tue 05:46:00 AM -17.0819 -50.0457 153° Southeast  Level Estimated
Tue 05:46:21 AM -18.0390 -50.0090 153° Southeast 505 581 37,000  Level FlightAware ADS-B
Tue 05:46:57 AM -18.1150 -49.9690 153° Southeast 507 583 37,000  Level FlightAware ADS-B
Tue 05:47:29 AM -18.1820 -49.9340 154° Southeast 505 581 37,000  Level FlightAware ADS-B
Tue 05:48:04 AM -18.2530 -49.8960 153° Southeast 503 579 37,000  Level FlightAware ADS-B
Tue 05:48:41 AM -18.3330 -49.8540 154° Southeast 499 574 37,000  Level FlightAware ADS-B
Tue 05:49:17 AM -18.4060 -49.8150 153° Southeast 499 574 37,000  Level FlightAware ADS-B
Tue 05:49:49 AM -18.4720 -49.7800 153° Southeast 500 575 37,000  Level FlightAware ADS-B
Tue 05:50:25 AM -18.5480 -49.7400 153° Southeast 501 577 37,000  Level FlightAware ADS-B
Tue 05:51:01 AM -18.6210 -49.7010 153° Southeast 501 577 37,000  Level FlightAware ADS-B
Tue 05:51:37 AM -18.6970 -49.6610 154° Southeast 498 573 37,000  Level FlightAware ADS-B
Tue 05:52:09 AM -18.7630 -49.6250 153° Southeast 497 572 37,000  Level FlightAware ADS-B
Tue 05:52:46 AM -18.8370 -49.5860 153° Southeast 496 571 37,000  Level FlightAware ADS-B
Tue 05:53:34 AM -18.9350 -49.5320 152° Southeast 497 572 37,000  Level FlightAware ADS-B
Tue 05:54:10 AM -19.0100 -49.4910 153° Southeast 497 572 37,000  Level FlightAware ADS-B
Tue 05:54:40 AM -19.0700 -49.4580 153° Southeast 497 572 37,000  Level FlightAware ADS-B
Tue 05:55:16 AM -19.1380 -49.4200 152° Southeast 497 572 37,000  Level FlightAware ADS-B
Tue 05:55:54 AM -19.2230 -49.3730 152° Southeast 497 572 37,000  Level FlightAware ADS-B
Tue 05:56:31 AM -19.2950 -49.3340 153° Southeast 497 572 37,000  Level FlightAware ADS-B
Tue 05:57:07 AM -19.3730 -49.2910 153° Southeast 497 572 37,000  Level FlightAware ADS-B
Tue 05:57:39 AM -19.4380 -49.2550 152° Southeast 496 571 37,000  Level FlightAware ADS-B
Tue 05:58:17 AM -19.5150 -49.2120 152° Southeast 498 573 37,000  Level FlightAware ADS-B
Tue 05:58:49 AM -19.5810 -49.1760 153° Southeast 498 573 37,000  Level FlightAware ADS-B
Tue 05:59:25 AM -19.6550 -49.1350 152° Southeast 499 574 37,000  Level FlightAware ADS-B
Tue 06:00:01 AM -19.7280 -49.0950 153° Southeast 500 575 37,000  Level FlightAware ADS-B
Tue 06:00:37 AM -19.8020 -49.0530 152° Southeast 502 578 37,000  Level FlightAware ADS-B
Tue 06:01:09 AM -19.8700 -49.0160 153° Southeast 503 579 37,000  Level FlightAware ADS-B
Tue 06:01:47 AM -19.9480 -48.9720 152° Southeast 505 581 37,000  Level FlightAware ADS-B
Tue 06:02:19 AM -20.0130 -48.9360 153° Southeast 506 582 37,000  Level FlightAware ADS-B
Tue 06:02:55 AM -20.0890 -48.8940 153° Southeast 507 583 37,000  Level FlightAware ADS-B
Tue 06:03:30 AM -20.1610 -48.8540 152° Southeast 509 586 37,000  Level FlightAware ADS-B
Tue 06:04:07 AM -20.2400 -48.8090 152° Southeast 509 586 37,000  Level FlightAware ADS-B
Tue 06:04:39 AM -20.3060 -48.7720 152° Southeast 509 586 37,000  Level FlightAware ADS-B
Tue 06:05:15 AM -20.3820 -48.7310 153° Southeast 508 585 37,000  Level FlightAware ADS-B
Tue 06:05:51 AM -20.4570 -48.6910 153° Southeast 508 585 37,000  Level FlightAware ADS-B
Tue 06:06:23 AM -20.5240 -48.6560 154° Southeast 508 585 37,000  Level FlightAware ADS-B
Tue 06:06:57 AM -20.5970 -48.6170 153° Southeast 508 585 37,000  Level FlightAware ADS-B
Tue 06:07:37 AM -20.6780 -48.5740 154° Southeast 507 583 37,000  Level FlightAware ADS-B
Tue 06:08:09 AM -20.7480 -48.5360 153° Southeast 507 583 37,000  Level FlightAware ADS-B
Tue 06:08:45 AM -20.8250 -48.4950 154° Southeast 507 583 37,000  Level FlightAware ADS-B
Tue 06:09:21 AM -20.9000 -48.4550 154° Southeast 506 582 37,000  Level FlightAware ADS-B
Tue 06:09:57 AM -20.9750 -48.4140 153° Southeast 506 582 37,000  Level FlightAware ADS-B
Tue 06:10:36 AM -21.0530 -48.3730 154° Southeast 506 582 37,000  Level FlightAware ADS-B
Tue 06:11:03 AM -21.1100 -48.3340 147° Southeast 514 592 37,000  Level FlightAware ADS-B
Tue 06:11:56 AM -21.2020 -48.2370 136° Southeast 522 601 37,000  Level FlightAware ADS-B
Tue 06:12:28 AM -21.2550 -48.1770 133° Southeast 522 601 37,000  Level FlightAware ADS-B
Tue 06:13:04 AM -21.3140 -48.1090 133° Southeast 524 603 37,000  Level FlightAware ADS-B
Tue 06:13:38 AM -21.3700 -48.0450 133° Southeast 524 603 37,000  Level FlightAware ADS-B
Tue 06:14:14 AM -21.4320 -47.9790 135° Southeast 518 596 37,000  Level FlightAware ADS-B
Tue 06:14:50 AM -21.5020 -47.9260 145° Southeast 515 593 37,000  Level FlightAware ADS-B
Tue 06:15:26 AM -21.5730 -47.8730 145° Southeast 515 593 37,000  Level FlightAware ADS-B
Tue 06:15:58 AM -21.6340 -47.8260 144° Southeast 516 594 37,000  Level FlightAware ADS-B
Tue 06:16:34 AM -21.7050 -47.7700 144° Southeast 516 594 37,000  Level FlightAware ADS-B
Tue 06:17:08 AM -21.7690 -47.7190 144° Southeast 512 589 37,000 -353 Level FlightAware ADS-B
Tue 06:17:42 AM -21.8340 -47.6690 144° Southeast 510 587 36,600 -1,629 Descending FlightAware ADS-B
Tue 06:18:18 AM -21.9040 -47.6160 145° Southeast 506 582 35,100 -2,514 Descending FlightAware ADS-B
Tue 06:18:56 AM -21.9750 -47.5610 144° Southeast 497 572 33,500 -2,657 Descending FlightAware ADS-B
Tue 06:19:28 AM -22.0350 -47.5150 145° Southeast 487 560 32,000 -2,824 Descending FlightAware ADS-B
Tue 06:20:04 AM -22.1010 -47.4640 144° Southeast 482 555 30,300 -2,500 Descending FlightAware ADS-B
Tue 06:20:40 AM -22.1660 -47.4150 145° Southeast 470 541 29,000 -2,206 Descending FlightAware ADS-B
Tue 06:21:12 AM -22.2200 -47.3730 144° Southeast 458 527 27,800 -2,206 Descending FlightAware ADS-B
Tue 06:21:48 AM -22.2820 -47.3260 145° Southeast 447 514 26,500 -2,113 Descending FlightAware ADS-B
Tue 06:22:23 AM -22.3400 -47.2810 144° Southeast 436 502 25,300 -2,057 Descending FlightAware ADS-B
Tue 06:22:58 AM -22.3960 -47.2370 144° Southeast 427 491 24,100 -2,028 Descending FlightAware ADS-B
Tue 06:23:34 AM -22.4550 -47.1920 145° Southeast 417 480 22,900 -1,971 Descending FlightAware ADS-B
Tue 06:24:08 AM -22.5070 -47.1520 145° Southeast 409 471 21,800 -1,971 Descending FlightAware ADS-B
Tue 06:24:44 AM -22.5600 -47.1120 145° Southeast 404 465 20,600 -2,083 Descending FlightAware ADS-B
Tue 06:25:20 AM -22.6240 -47.0780 154° Southeast 416 479 19,300 -2,087 Descending FlightAware ADS-B
Tue 06:25:53 AM -22.6840 -47.0520 158° South 409 471 18,200 -2,000 Descending FlightAware ADS-B
Tue 06:26:29 AM -22.7460 -47.0270 160° South 401 461 17,000 -2,083 Descending FlightAware ADS-B
Tue 06:27:05 AM -22.8090 -47.0000 158° South 393 452 15,700 -1,690 Descending FlightAware ADS-B
Tue 06:27:40 AM -22.8670 -46.9760 159° South 379 436 15,000 -1,343 Descending FlightAware ADS-B
Tue 06:28:12 AM -22.9190 -46.9540 159° South 368 423 14,200 -1,765 Descending FlightAware ADS-B
Tue 06:28:48 AM -22.9760 -46.9300 159° South 359 413 13,000 -1,833 Descending FlightAware ADS-B
Tue 06:29:24 AM -23.0300 -46.9080 159° South 327 376 12,000 -1,667 Descending FlightAware ADS-B
Tue 06:30:00 AM -23.0780 -46.8870 158° South 287 330 11,000 -1,500 Descending FlightAware ADS-B
Tue 06:30:32 AM -23.1160 -46.8720 160° South 281 323 10,300 -984 Descending FlightAware ADS-B
Tue 06:31:01 AM -23.1490 -46.8570 157° South 268 308 10,000 -941 Descending FlightAware ADS-B
Tue 06:31:23 AM -23.1760 -46.8460 159° South 265 305 9,500 -1,227 Descending FlightAware ADS-B
Tue 06:31:45 AM -23.2020 -46.8350 159° South 264 304 9,100 -1,143 Descending FlightAware ADS-B
Tue 06:32:05 AM -23.2240 -46.8260 159° South 262 302 8,700 -1,167 Descending FlightAware ADS-B
Tue 06:32:21 AM -23.2420 -46.8180 158° South 262 302 8,400 -1,167 Descending FlightAware ADS-B
Tue 06:32:41 AM -23.2650 -46.8080 158° South 261 300 8,000 -900 Descending FlightAware ADS-B
Tue 06:33:01 AM -23.2870 -46.7990 159° South 263 303 7,800 -450 Descending FlightAware ADS-B
Tue 06:33:21 AM -23.3070 -46.7900 158° South 251 289 7,700 -409 Descending FlightAware ADS-B
Tue 06:33:45 AM -23.3350 -46.7790 160° South 235 270 7,500 -409 Descending FlightAware ADS-B
Tue 06:34:05 AM -23.3550 -46.7700 158° South 220 253 7,400 -375 Descending FlightAware ADS-B
Tue 06:34:17 AM -23.3660 -46.7650 157° South 215 247 7,300 -686 Descending FlightAware ADS-B
Tue 06:34:40 AM -23.3840 -46.7520 146° Southeast 215 247 7,000 -977 Descending FlightAware ADS-B
Tue 06:35:00 AM -23.3990 -46.7380 139° Southeast 214 246 6,600 -1,077 Descending FlightAware ADS-B
Tue 06:35:19 AM -23.4130 -46.7250 140° Southeast 212 244 6,300 -1,171 Descending FlightAware ADS-B
Tue 06:35:41 AM -23.4290 -46.7090 137° Southeast 208 239 5,800 -1,565 Descending FlightAware ADS-B
Tue 06:36:05 AM -23.4460 -46.6920 137° Southeast 207 238 5,100 -1,500 Descending FlightAware ADS-B
Tue 06:36:17 AM -23.4520 -46.6820 123° Southeast 205 236 4,900 -600 Descending FlightAware ADS-B
Tue 06:36:35 AM -23.4600 -46.6650 117° Southeast 203 234 4,800 -682 Descending FlightAware ADS-B
Tue 06:37:01 AM -23.4700 -46.6410 114° Southeast 195 224 4,400 -632 Descending FlightAware ADS-B
Tue 06:37:13 AM -23.4730 -46.6310 108° East 184 212 4,400  Level FlightAware ADS-B
Tue 06:37:21 AM -23.4740 -46.6240 99° East 176 203 4,400 -333 Level FlightAware ADS-B
Tue 06:37:49 AM -23.4690 -46.5990 78° East 173 199 4,200 -612 Descending FlightAware ADS-B
Tue 06:38:10 AM -23.4640 -46.5820 72° East 169 194 3,900 -968 Descending FlightAware ADS-B
Tue 06:38:20 AM -23.4620 -46.5740 75° East 165 190 3,700 -857 Descending FlightAware ADS-B
Tue 06:38:45 AM -23.4570 -46.5540 75° East 154 177 3,400 -800 Descending FlightAware ADS-B
Tue 06:39:05 AM -23.4530 -46.5400 73° East 150 173 3,100 -750 Descending FlightAware ADS-B
Tue 06:39:25 AM -23.4490 -46.5260 73° East 150 173 2,900 -732 Descending FlightAware ADS-B
Tue 06:39:46 AM -23.4450 -46.5100 75° East 150 173 2,600 -873 Descending FlightAware ADS-B
Tue 06:40:20 AM -23.4380 -46.4840 74° East 157 181 2,100 -882 Descending FlightAware ADS-B
Tue 06:40:36 AM -23.4360 -46.4760 75° East 140 161 -7,875 Descending FlightAware ADS-B
Tue 06:41:04 AM -23.4310 -46.4600 71° East 140 161  Level FlightAware ADS-B

Login

Don't have an account? Register now (free) for customized features, flight alerts, and more!